Retour au catalogue

NEWSAT-1

PALAPA B2R

ActifCommunicationsGEO
NORAD 20570·PAYLOAD·🇺🇸 United States

Lancé Apr 13, 1990 depuis Cape Canaveral Space Force Station

Loading…

TLE

FraisSource: Space-Track

Époque: Sep 14, 2026, 12:45 UTC

1 20570U 90034A   26257.53191102 -.00000307  00000-0  00000-0 0  9995
2 20570  14.7777   2.2119 0009769 158.5609 176.6964  0.99533852 47171

Suivez NEWSAT-1 en temps réel avec AllMySat

Download on the App Store